Wind_Speed
23 23 23 24 25 25 25 26 26 25 24 23 23 22 20 20 20 19 19 19 20 19 20 20 21 20 20 21 21 21 21 21 21 21 21 21 21 21 21 20 20 20 20 20
25 25 26 26 26 26 26 26 26 26 25 24 24 23 22 21 20 20 20 20 20 20 20 20 20 20 21 21 21 21 22 22 22 22 22 22 22 22 21 21 21 22 21 21
27 27 27 28 27 27 27 27 27 27 26 25 24 24 24 23 22 21 22 22 21 22 22 22 21 21 21 21 22 22 23 24 24 24 23 23 23 23 22 23 23 23 23 23
29 28 29 27 27 27 27 28 28 27 27 26 25 24 25 25 25 23 24 23 23 24 24 24 24 24 23 24 24 24 25 25 25 25 25 24 24 24 24 24 24 24 24 24
29 30 30 29 28 28 28 27 28 28 27 27 26 25 25 25 26 26 26 26 25 26 26 26 26 26 26 27 26 27 27 26 26 26 26 26 25 25 25 25 25 25 25 24
30 30 30 28 28 27 28 27 27 27 27 26 25 26 25 26 26 27 27 27 27 28 28 28 28 29 28 28 27 28 28 28 28 28 28 27 26 26 25 25 25 25 25 25
30 30 30 28 28 27 28 27 27 27 26 26 26 26 26 26 27 27 27 27 28 28 29 29 29 30 30 29 29 29 29 29 29 30 29 28 27 27 26 26 26 26 26 26
29 29 29 27 27 27 28 28 28 28 27 27 27 28 28 28 28 27 28 28 28 29 29 30 30 31 31 31 31 31 31 31 31 30 30 29 28 28 28 27 27 27 27 27
28 28 27 27 27 27 28 28 28 29 28 28 28 29 29 28 28 28 28 29 29 30 30 30 30 31 30 30 31 32 32 32 32 32 31 30 29 29 29 29 28 28 28 28
27 26 26 26 26 27 28 28 28 29 28 27 27 28 27 27 26 27 28 29 29 30 31 31 31 31 31 31 32 32 32 32 33 33 32 31 30 30 30 31 30 30 30 29
27 26 26 26 26 26 26 27 27 27 27 28 27 27 26 26 27 28 28 29 30 30 31 32 32 32 32 31 31 31 33 33 33 33 32 32 32 32 31 31 32 32 31 31
27 27 27 27 26 26 26 26 26 26 26 26 27 27 27 28 28 29 29 29 29 30 31 31 31 32 32 32 32 32 33 33 33 32 32 32 33 33 32 32 33 33 33 32
27 27 27 27 26 26 25 25 26 26 26 27 28 28 27 27 28 29 29 29 29 30 31 31 31 31 32 32 33 34 33 33 33 33 33 33 33 33 32 32 33 34 34 34
26 26 25 25 25 25 26 26 27 27 28 28 29 28 27 27 27 28 29 29 30 30 31 31 31 32 32 32 33 34 34 33 33 33 34 34 33 33 34 33 33 33 34 33
26 26 25 25 25 26 27 28 28 29 29 29 28 28 28 28 27 27 28 28 29 29 30 30 29 30 30 31 31 32 32 32 32 33 33 33 33 34 34 35 35 34 34 33
25 26 26 26 26 27 27 28 28 28 28 29 28 28 28 28 28 28 27 27 28 28 29 29 29 29 29 30 30 31 31 31 31 32 32 32 33 34 34 35 35 35 34 34
25 25 26 26 27 27 27 27 27 26 27 27 27 27 28 28 27 27 28 27 27 27 28 28 29 29 30 30 30 30 30 30 30 31 32 32 32 32 33 33 34 34 34 34
25 25 26 27 27 27 27 27 27 26 26 27 27 27 27 26 26 25 26 26 27 27 27 27 28 28 28 28 29 29 29 30 30 30 30 31 32 33 34 33 33 33 33 33
25 26 27 27 28 28 28 28 27 27 27 27 27 27 26 26 26 26 25 26 26 27 27 27 27 28 28 28 28 29 29 30 30 30 31 31 31 32 32 32 32 32 33 33
27 27 28 28 28 28 28 27 27 27 26 27 27 27 27 27 27 26 25 25 25 26 26 27 27 26 27 27 28 29 30 30 30 30 30 30 30 31 31 31 31 31 32 32
26 26 27 27 27 27 27 26 26 25 25 26 26 27 27 27 26 25 24 25 25 26 26 27 27 27 27 27 27 28 29 29 30 30 30 29 29 29 30 30 31 31 31 32
25 25 25 25 25 25 25 26 25 25 25 25 26 27 27 27 26 25 25 25 25 26 27 27 27 27 27 27 27 28 28 28 28 28 29 29 29 29 29 29 29 29 30 30
24 24 24 24 24 24 25 25 25 24 24 24 25 25 26 26 25 25 25 25 25 26 27 27 27 27 28 28 28 28 28 29 28 28 28 28 28 28 28 28 28 28 28 29
23 24 24 23 23 23 24 24 24 24 24 24 24 24 25 25 24 24 24 25 25 26 27 26 26 26 26 27 27 28 28 28 28 27 27 27 27 27 27 28 28 27 27 27
22 22 21 21 22 22 22 22 22 22 23 23 23 24 24 24 24 24 24 25 25 25 25 25 25 25 25 25 25 26 27 27 27 27 26 26 26 26 26 27 26 26 26 26
20 20 20 20 19 19 19 19 20 21 21 21 22 23 24 24 23 23 23 23 24 24 24 25 25 25 24 24 24 24 24 25 25 25 24 24 24 25 25 25 24 24 24 24
18 18 18 18 18 18 18 18 18 19 19 20 21 22 22 21 21 20 20 20 20 20 21 22 22 23 24 24 24 24 24 24 24 24 24 24 24 24 23 23 23 23 23 24
Wind_Direction
253 253 254 256 258 260 263 266 269 272 274 275 276 273 270 271 273 274 275 276 276 273 274 278 281 279 280 283 284 284 285 286 288 287 286 286 286 284 282 282 283 284 284 283
256 256 258 259 260 261 264 266 269 272 273 274 274 272 268 269 270 273 275 279 280 279 277 280 282 281 280 281 283 283 283 283 285 286 285 285 285 286 284 283 284 283 283 282
258 259 261 261 262 263 264 266 269 272 274 275 273 269 267 267 269 271 275 275 276 280 281 280 281 280 280 280 281 281 281 282 284 284 284 285 286 287 288 287 287 287 284 283
258 259 262 264 263 263 264 267 270 273 274 273 272 269 269 270 269 271 273 274 275 277 279 280 279 278 277 279 281 280 280 281 283 283 283 284 285 286 287 287 285 286 287 285
258 259 263 264 265 265 267 267 269 272 273 274 272 271 270 270 270 272 272 271 273 276 278 279 279 278 277 278 279 279 280 280 280 283 285 284 283 284 284 284 284 284 284 286
258 260 262 265 266 268 269 268 269 271 273 274 274 272 272 271 272 274 275 274 274 275 276 276 278 278 278 279 278 279 280 280 280 283 285 285 282 282 282 283 284 283 284 284
260 262 264 266 267 269 270 270 270 270 271 273 274 274 273 272 272 272 275 275 274 273 273 273 276 277 277 278 278 278 278 278 278 280 281 282 281 279 280 280 282 282 282 283
259 262 264 266 267 267 268 270 271 271 272 274 275 275 273 272 271 271 272 275 276 276 275 274 274 275 277 277 277 276 276 276 276 278 280 279 279 278 278 280 281 280 281 281
258 261 262 264 266 268 269 271 273 273 274 273 274 275 274 273 273 273 273 274 276 277 277 277 277 277 277 276 276 276 275 276 276 277 278 279 278 278 277 277 278 279 280 279
258 259 260 263 265 267 270 272 272 274 275 277 276 276 275 274 274 275 275 276 277 276 276 277 278 279 279 276 276 276 275 276 276 276 277 277 277 276 276 275 276 277 278 277
258 259 260 262 265 267 271 273 272 272 274 276 276 278 277 275 276 277 277 278 277 278 279 278 278 279 278 277 277 277 276 276 276 277 278 277 277 277 277 275 277 277 278 279
258 259 261 263 265 267 271 273 273 274 275 276 277 279 280 279 279 278 278 278 280 279 279 278 278 278 277 277 277 277 279 277 277 278 279 279 280 280 279 278 277 278 278 279
261 261 262 263 266 267 270 274 275 276 277 279 280 280 280 281 281 280 280 281 281 281 281 280 279 279 278 277 277 277 278 278 277 277 277 278 280 280 280 279 279 279 278 278
262 263 263 265 267 269 271 273 275 276 277 279 281 280 283 285 285 283 283 283 281 282 283 283 283 281 279 275 275 277 278 279 278 278 278 278 277 279 279 279 279 280 281 280
261 261 263 266 269 270 272 273 274 275 276 277 281 283 284 285 286 285 285 284 284 285 285 285 286 285 281 278 277 278 279 279 280 280 280 278 277 278 278 279 280 281 282 280
259 260 263 267 270 271 273 275 277 277 277 278 279 282 284 285 286 287 288 287 287 286 287 288 288 287 284 283 283 282 282 283 283 283 282 281 280 280 280 280 280 280 280 280
259 261 264 268 270 272 273 275 276 277 279 280 280 281 283 284 285 286 288 289 289 289 289 290 289 288 287 286 286 285 285 286 288 286 285 284 283 282 282 282 282 281 279 279
258 261 266 269 271 273 276 277 278 278 278 279 280 281 282 284 285 286 288 290 291 292 292 292 291 291 291 289 288 286 285 286 286 286 285 284 283 283 283 282 282 282 281 280
258 262 267 271 274 275 277 278 278 278 278 279 279 280 281 283 285 286 289 290 291 291 292 293 294 293 292 290 288 287 287 287 287 287 287 286 284 283 283 283 282 281 280 280
261 264 268 271 273 275 276 276 278 278 278 279 279 280 281 283 285 287 290 291 292 293 293 293 293 293 292 292 291 289 288 288 288 287 288 288 286 284 283 283 283 282 281 281
264 266 269 271 274 274 275 277 279 279 278 279 280 280 281 283 285 286 289 291 292 292 293 294 294 293 293 292 292 292 291 289 289 289 288 288 288 287 285 284 283 283 283 283
263 266 269 272 274 275 276 278 279 280 280 280 281 283 284 284 285 286 287 289 290 291 293 295 295 295 294 292 292 293 294 294 292 290 288 289 288 288 286 285 284 284 285 285
264 266 269 272 274 275 278 279 279 279 280 281 282 284 285 285 284 285 287 288 289 291 292 294 294 294 293 292 292 293 295 294 292 290 289 289 289 289 288 287 286 285 285 286
268 269 271 272 274 276 277 277 278 279 281 281 282 284 288 288 286 287 288 288 290 291 293 294 295 294 294 293 293 293 295 296 295 292 289 289 290 289 289 288 288 288 288 287
269 270 270 272 274 276 277 278 279 281 283 284 285 287 290 291 290 289 290 290 291 292 293 294 295 295 295 295 295 295 296 297 296 293 290 288 288 288 289 288 289 290 289 289
268 268 270 273 275 276 278 279 281 284 286 286 287 290 292 293 293 292 292 292 293 294 294 295 296 296 297 297 296 298 298 299 299 297 295 293 293 294 294 293 292 292 291 290
270 271 274 276 278 278 280 282 284 287 290 291 292 292 293 293 292 292 293 297 298 298 297 297 299 300 300 298 298 299 299 300 302 302 301 300 299 299 299 298 297 295 292 291
Height
5854 5856 5857 5858 5859 5859 5860 5860 5861 5862 5862 5862 5861 5861 5862 5862 5861 5861 5860 5860 5859 5858 5857 5857 5856 5855 5854 5853 5852 5850 5849 5848 5847 5846 5845 5843 5842 5840 5839 5838 5837 5836 5834 5833
5848 5850 5851 5852 5853 5853 5854 5854 5854 5855 5856 5856 5855 5855 5855 5856 5856 5856 5855 5854 5853 5852 5851 5850 5850 5849 5848 5847 5846 5845 5844 5842 5841 5840 5838 5837 5836 5834 5833 5832 5831 5830 5829 5827
5842 5843 5844 5845 5846 5847 5847 5847 5848 5849 5850 5849 5849 5849 5849 5849 5849 5849 5849 5848 5847 5846 5845 5844 5843 5842 5842 5841 5840 5839 5838 5836 5835 5834 5832 5831 5829 5828 5827 5826 5825 5823 5822 5821
5835 5837 5837 5841 5840 5840 5841 5841 5841 5842 5842 5842 5842 5842 5842 5842 5842 5842 5842 5841 5840 5840 5839 5837 5837 5836 5835 5834 5833 5832 5831 5830 5829 5827 5826 5824 5823 5822 5821 5819 5818 5817 5815 5814
5828 5829 5830 5832 5833 5833 5834 5834 5834 5834 5835 5835 5834 5835 5835 5834 5834 5834 5834 5833 5833 5832 5832 5831 5830 5828 5827 5826 5825 5824 5823 5822 5821 5820 5819 5817 5816 5815 5814 5813 5811 5810 5809 5807
5821 5822 5823 5826 5826 5826 5828 5827 5828 5827 5828 5827 5827 5828 5829 5827 5827 5826 5826 5825 5825 5824 5823 5823 5822 5821 5819 5818 5817 5817 5816 5815 5813 5812 5811 5810 5808 5807 5806 5805 5803 5802 5801 5800
5814 5815 5816 5818 5819 5820 5821 5822 5821 5820 5820 5820 5820 5820 5820 5819 5819 5818 5818 5817 5816 5815 5815 5814 5813 5812 5811 5810 5809 5808 5807 5806 5805 5804 5802 5801 5800 5799 5798 5797 5796 5795 5794 5793
5808 5808 5811 5811 5812 5813 5813 5813 5813 5813 5813 5813 5812 5812 5811 5810 5810 5809 5809 5808 5807 5806 5806 5805 5804 5802 5801 5800 5800 5799 5798 5797 5796 5795 5793 5792 5792 5791 5790 5789 5788 5787 5786 5785
5802 5804 5803 5804 5804 5805 5804 5805 5805 5805 5805 5805 5804 5803 5802 5801 5801 5801 5800 5799 5798 5797 5796 5795 5794 5793 5792 5791 5790 5789 5789 5788 5787 5786 5785 5784 5783 5782 5781 5781 5780 5779 5777 5776
5794 5795 5796 5797 5797 5797 5797 5797 5797 5797 5797 5797 5796 5795 5794 5793 5792 5792 5791 5790 5789 5788 5787 5786 5785 5783 5782 5781 5780 5779 5779 5778 5777 5776 5775 5775 5774 5773 5772 5771 5771 5769 5768 5767
5787 5788 5789 5790 5790 5790 5790 5789 5789 5789 5789 5789 5788 5787 5786 5786 5785 5783 5782 5781 5780 5779 5777 5776 5775 5774 5773 5772 5771 5769 5767 5767 5767 5766 5765 5765 5764 5764 5763 5762 5761 5760 5759 5758
5780 5781 5782 5783 5783 5783 5783 5782 5782 5782 5782 5781 5780 5779 5778 5777 5776 5775 5774 5772 5771 5769 5768 5767 5766 5764 5763 5762 5761 5760 5759 5758 5757 5756 5756 5755 5754 5754 5753 5752 5751 5750 5749 5749
5772 5773 5774 5775 5776 5776 5776 5775 5775 5774 5774 5773 5772 5771 5770 5769 5768 5766 5765 5763 5762 5760 5759 5757 5756 5755 5754 5752 5751 5750 5749 5748 5747 5746 5746 5745 5744 5744 5743 5742 5741 5740 5739 5738
5765 5766 5767 5768 5768 5768 5768 5768 5768 5767 5766 5765 5764 5763 5762 5760 5759 5758 5756 5754 5753 5751 5749 5748 5746 5745 5744 5742 5741 5740 5740 5738 5737 5736 5735 5734 5734 5733 5733 5732 5731 5730 5729 5728
5758 5759 5760 5760 5761 5761 5761 5760 5760 5759 5758 5757 5755 5754 5753 5752 5751 5749 5748 5746 5744 5743 5741 5738 5737 5735 5733 5732 5731 5730 5729 5728 5727 5726 5725 5724 5724 5723 5722 5721 5721 5720 5719 5718
5751 5752 5752 5753 5753 5753 5753 5752 5752 5751 5749 5748 5747 5746 5745 5743 5742 5741 5739 5737 5736 5734 5732 5730 5728 5726 5724 5722 5721 5720 5719 5719 5717 5716 5715 5714 5714 5713 5712 5711 5710 5709 5709 5708
5744 5745 5745 5745 5746 5745 5745 5744 5743 5743 5741 5740 5739 5738 5737 5735 5734 5733 5731 5729 5727 5725 5723 5721 5719 5717 5715 5713 5712 5711 5710 5709 5708 5706 5705 5704 5703 5702 5701 5700 5699 5698 5698 5697
5736 5737 5738 5738 5738 5738 5737 5737 5735 5734 5734 5732 5731 5730 5729 5728 5726 5724 5723 5721 5719 5717 5715 5713 5711 5708 5706 5704 5703 5702 5701 5700 5698 5697 5695 5694 5693 5692 5691 5689 5688 5688 5687 5686
5729 5730 5730 5730 5730 5730 5729 5729 5728 5727 5725 5724 5723 5722 5720 5719 5718 5716 5715 5713 5711 5710 5708 5705 5703 5700 5698 5696 5694 5693 5692 5690 5689 5688 5686 5684 5683 5681 5680 5679 5678 5677 5676 5676
5722 5722 5723 5722 5722 5722 5722 5721 5720 5719 5718 5716 5715 5714 5713 5711 5710 5708 5707 5705 5703 5701 5699 5697 5695 5692 5690 5688 5686 5684 5682 5681 5680 5678 5677 5675 5673 5672 5671 5670 5668 5667 5666 5666
5714 5715 5715 5714 5714 5714 5713 5713 5712 5711 5710 5709 5707 5706 5704 5703 5702 5700 5699 5698 5696 5694 5691 5689 5687 5684 5682 5680 5678 5676 5674 5672 5671 5669 5667 5666 5664 5663 5662 5660 5659 5658 5657 5656
5707 5707 5707 5706 5706 5706 5705 5704 5704 5703 5702 5701 5700 5698 5696 5695 5694 5692 5691 5690 5688 5685 5683 5681 5679 5676 5674 5672 5670 5668 5666 5663 5662 5660 5658 5657 5655 5654 5653 5651 5650 5649 5647 5646
5700 5700 5699 5699 5698 5698 5697 5696 5696 5695 5694 5693 5692 5691 5689 5688 5686 5685 5684 5682 5680 5677 5675 5673 5671 5668 5666 5663 5661 5659 5657 5655 5653 5651 5650 5648 5646 5645 5644 5642 5641 5639 5638 5637
5693 5693 5692 5692 5691 5690 5690 5689 5688 5688 5687 5686 5685 5683 5682 5680 5679 5677 5675 5674 5672 5670 5667 5665 5663 5660 5657 5655 5653 5651 5649 5647 5645 5643 5641 5640 5638 5636 5635 5634 5633 5631 5629 5628
5686 5686 5685 5685 5684 5684 5683 5682 5682 5681 5680 5679 5677 5676 5674 5673 5671 5670 5668 5666 5664 5662 5660 5658 5655 5652 5650 5647 5645 5643 5642 5640 5637 5635 5633 5632 5630 5628 5627 5625 5624 5623 5621 5619
5679 5679 5679 5679 5678 5677 5677 5676 5675 5674 5673 5672 5671 5669 5667 5666 5664 5662 5660 5659 5657 5655 5653 5651 5648 5645 5643 5640 5638 5636 5634 5632 5630 5628 5626 5624 5623 5621 5619 5617 5615 5614 5612 5611
5674 5674 5674 5673 5673 5672 5671 5670 5670 5669 5667 5666 5664 5663 5661 5659 5658 5656 5654 5652 5650 5648 5646 5644 5642 5639 5636 5634 5632 5630 5628 5626 5624 5621 5619 5617 5616 5614 5612 5610 5608 5606 5604 5603